| time (UTC) | temp C | wind direction | speed KPH | gust KPH | rain 1hr cm | rain 24hr cm | rain mn cm | humidity % | barometer mb |
| 20260509235911 | 17 | 271 | 3.2 | 9.7 | 0.00 | 0.00 | 0.00 | 71 | 1030.0 |
| 20260509235408 | 17 | 229 | 1.6 | 6.4 | 0.00 | 0.00 | 0.00 | 72 | 1029.9 |
| 20260509235153 | 16 | 271 | 4.8 | 11.3 | 0.00 | 0.00 | 0.00 | 74 | 1029.9 |
| 20260509235035 | 16 | 285 | 1.6 | 11.3 | 0.00 | 0.00 | 0.00 | 73 | 1030.0 |
| 20260509233912 | 16 | 284 | 4.8 | 11.3 | 0.00 | 0.00 | 0.00 | 74 | 1029.9 |
| 20260509233750 | 16 | 269 | 1.6 | 6.4 | 0.00 | 0.00 | 0.00 | 75 | 1029.8 |
| 20260509232912 | 16 | 216 | 1.6 | 9.7 | 0.00 | 0.00 | 0.00 | 75 | 1029.9 |
| 20260509232415 | 15 | 289 | 3.2 | 9.7 | 0.00 | 0.00 | 0.00 | 75 | 1029.9 |
| 20260509231913 | 15 | 242 | 3.2 | 9.7 | 0.00 | 0.00 | 0.00 | 75 | 1030.0 |
| 20260509231739 | 15 | 266 | 3.2 | 9.7 | 0.00 | 0.00 | 0.00 | 76 | 1029.9 |
| 20260509230904 | 15 | 234 | 1.6 | 11.3 | 0.00 | 0.00 | 0.00 | 78 | 1029.9 |
| 20260509230415 | 15 | 272 | 3.2 | 11.3 | 0.00 | 0.00 | 0.00 | 79 | 1029.9 |
| 20260509225907 | 14 | 266 | 3.2 | 14.5 | 0.00 | 0.00 | 0.00 | 80 | 1029.9 |
| 20260509225405 | 14 | 277 | 6.4 | 14.5 | 0.00 | 0.00 | 0.00 | 80 | 1030.0 |
| 20260509224904 | 14 | 265 | 3.2 | 12.9 | 0.00 | 0.00 | 0.00 | 81 | 1030.0 |
| 20260509224403 | 14 | 267 | 4.8 | 12.9 | 0.00 | 0.00 | 0.00 | 82 | 1030.0 |
| 20260509223908 | 13 | 273 | 1.6 | 11.3 | 0.00 | 0.00 | 0.00 | 83 | 1029.9 |
| 20260509223402 | 13 | 261 | 1.6 | 11.3 | 0.00 | 0.00 | 0.00 | 85 | 1030.0 |
| 20260509222907 | 13 | 277 | 3.2 | 6.4 | 0.00 | 0.00 | 0.00 | 86 | 1030.0 |
| 20260509222403 | 13 | 271 | 1.6 | 11.3 | 0.00 | 0.00 | 0.00 | 87 | 1029.9 |
| 20260509221914 | 12 | 276 | 3.2 | 11.3 | 0.00 | 0.00 | 0.00 | 89 | 1029.9 |
| 20260509221406 | 12 | 277 | 3.2 | 6.4 | 0.00 | 0.00 | 0.00 | 90 | 1029.8 |
| 20260509221250 | 12 | 281 | 1.6 | 6.4 | 0.00 | 0.00 | 0.00 | 91 | 1029.8 |
| 20260509220405 | 11 | 286 | 3.2 | 6.4 | 0.00 | 0.00 | 0.00 | 91 | 1029.7 |
| 20260509215910 | 11 | 285 | 3.2 | 6.4 | 0.00 | 0.00 | 0.00 | 92 | 1029.8 |
| 20260509215405 | 11 | 278 | 1.6 | 4.8 | 0.00 | 0.00 | 0.00 | 92 | 1029.7 |
| 20260509214906 | 11 | 286 | 3.2 | 6.4 | 0.00 | 0.00 | 0.00 | 93 | 1029.6 |
| 20260509214402 | 10 | 290 | 3.2 | 6.4 | 0.00 | 0.00 | 0.00 | 93 | 1029.6 |
| 20260509214248 | 10 | 281 | 0.0 | 3.2 | 0.00 | 0.00 | 0.00 | 93 | 1029.5 |
| 20260509213403 | 10 | 277 | 0.0 | 3.2 | 0.00 | 0.00 | 0.00 | 93 | 1029.4 |
| 20260509213238 | 10 | 277 | 1.6 | 4.8 | 0.00 | 0.00 | 0.00 | 92 | 1029.5 |
| 20260509212407 | 10 | 267 | 1.6 | 4.8 | 0.00 | 0.00 | 0.00 | 92 | 1029.3 |
| 20260509211913 | 10 | 284 | 0.0 | 9.7 | 0.00 | 0.00 | 0.00 | 92 | 1029.1 |
| 20260509211402 | 10 | 277 | 1.6 | 9.7 | 0.00 | 0.00 | 0.00 | 92 | 1029.2 |
| 20260509210906 | 10 | 286 | 3.2 | 6.4 | 0.00 | 0.00 | 0.00 | 92 | 1029.0 |
| 20260509210404 | 10 | 279 | 3.2 | 4.8 | 0.00 | 0.00 | 0.00 | 92 | 1028.9 |
| 20260509205911 | 9 | 300 | 3.2 | 4.8 | 0.00 | 0.00 | 0.00 | 92 | 1028.9 |
| 20260509205408 | 9 | 302 | 1.6 | 3.2 | 0.00 | 0.00 | 0.00 | 92 | 1029.0 |
| 20260509204909 | 9 | 279 | 1.6 | 3.2 | 0.00 | 0.00 | 0.00 | 92 | 1028.9 |
| 20260509204407 | 9 | 278 | 0.0 | 0.0 | 0.00 | 0.00 | 0.00 | 92 | 1028.9 |
| 20260509203915 | 9 | 278 | 0.0 | 1.6 | 0.00 | 0.00 | 0.00 | 92 | 1028.8 |
| 20260509203749 | 9 | 278 | 0.0 | 3.2 | 0.00 | 0.00 | 0.00 | 92 | 1028.8 |
| 20260509202909 | 9 | 278 | 0.0 | 3.2 | 0.00 | 0.00 | 0.00 | 92 | 1028.7 |
| 20260509202840 | 9 | 278 | 1.6 | 3.2 | 0.00 | 0.00 | 0.00 | 92 | 1028.6 |
| 20260509201907 | 9 | 267 | 0.0 | 1.6 | 0.00 | 0.00 | 0.00 | 91 | 1028.6 |
| 20260509201409 | 9 | 267 | 0.0 | 1.6 | 0.00 | 0.00 | 0.00 | 91 | 1028.5 |
| 20260509200909 | 9 | 275 | 0.0 | 3.2 | 0.00 | 0.00 | 0.00 | 91 | 1028.6 |
| 20260509200749 | 9 | 275 | 1.6 | 4.8 | 0.00 | 0.00 | 0.00 | 91 | 1028.4 |
| 20260509195906 | 9 | 275 | 3.2 | 4.8 | 0.00 | 0.00 | 0.00 | 91 | 1028.4 |
| 20260509195408 | 9 | 274 | 1.6 | 4.8 | 0.00 | 0.00 | 0.00 | 91 | 1028.2 |
| 20260509194907 | 9 | 297 | 1.6 | 3.2 | 0.00 | 0.00 | 0.00 | 91 | 1028.1 |
| 20260509194408 | 9 | 297 | 0.0 | 3.2 | 0.00 | 0.00 | 0.00 | 91 | 1027.9 |
| 20260509194257 | 9 | 297 | 0.0 | 1.6 | 0.00 | 0.00 | 0.00 | 91 | 1027.9 |
| 20260509193355 | 10 | 297 | 0.0 | 3.2 | 0.00 | 0.00 | 0.00 | 91 | 1027.8 |
| 20260509192852 | 10 | 297 | 0.0 | 3.2 | 0.00 | 0.00 | 0.00 | 91 | 1027.8 |
| 20260509192350 | 10 | 297 | 1.6 | 3.2 | 0.00 | 0.00 | 0.00 | 91 | 1027.7 |
| 20260509191846 | 10 | 297 | 1.6 | 3.2 | 0.00 | 0.00 | 0.00 | 91 | 1027.7 |
| 20260509191343 | 10 | 297 | 0.0 | 1.6 | 0.00 | 0.00 | 0.00 | 91 | 1027.6 |
| 20260509190836 | 10 | 297 | 0.0 | 3.2 | 0.00 | 0.00 | 0.00 | 91 | 1027.6 |
| 20260509190336 | 10 | 297 | 0.0 | 3.2 | 0.00 | 0.00 | 0.00 | 91 | 1027.5 |
| 20260509185330 | 10 | 297 | 1.6 | 3.2 | 0.00 | 0.00 | 0.00 | 91 | 1027.5 |
| 20260509184333 | 10 | 297 | 0.0 | 1.6 | 0.00 | 0.00 | 0.00 | 91 | 1027.3 |
| 20260509184221 | 10 | 297 | 0.0 | 4.8 | 0.00 | 0.00 | 0.00 | 91 | 1027.3 |
| 20260509183333 | 10 | 297 | 1.6 | 4.8 | 0.00 | 0.00 | 0.00 | 91 | 1027.3 |
| 20260509182833 | 9 | 290 | 1.6 | 6.4 | 0.00 | 0.00 | 0.00 | 91 | 1027.3 |
| 20260509182405 | 9 | 302 | 1.6 | 6.4 | 0.00 | 0.00 | 0.00 | 91 | 1027.3 |
| 20260509181834 | 9 | 298 | 1.6 | 4.8 | 0.00 | 0.00 | 0.00 | 91 | 1027.1 |
| 20260509181336 | 9 | 281 | 0.0 | 4.8 | 0.00 | 0.00 | 0.00 | 90 | 1027.1 |
| 20260509180827 | 9 | 277 | 3.2 | 6.4 | 0.00 | 0.00 | 0.00 | 90 | 1027.1 |
| 20260509180324 | 9 | 283 | 3.2 | 6.4 | 0.00 | 0.00 | 0.00 | 90 | 1027.2 |
| 20260509175343 | 9 | 295 | 0.0 | 0.0 | 0.00 | 0.00 | 0.00 | 90 | 1027.3 |
| 20260509174819 | 9 | 295 | 0.0 | 0.0 | 0.00 | 0.00 | 0.00 | 90 | 1027.4 |
| 20260509174319 | 9 | 295 | 0.0 | 0.0 | 0.00 | 0.00 | 0.00 | 90 | 1027.3 |
| 20260509174251 | 10 | 295 | 0.0 | 0.0 | 0.00 | 0.00 | 0.00 | 90 | 1027.2 |
| 20260509174245 | 10 | 295 | 0.0 | 0.0 | 0.00 | 0.00 | 0.00 | 90 | 1027.2 |
| 20260509173842 | 10 | 295 | 0.0 | 0.0 | 0.00 | 0.00 | 0.00 | 90 | 1027.2 |
| 20260509172319 | 10 | 295 | 0.0 | 1.6 | 0.00 | 0.00 | 0.00 | 90 | 1027.1 |
| 20260509172156 | 10 | 295 | 0.0 | 1.6 | 0.00 | 0.00 | 0.00 | 90 | 1027.1 |
| 20260509171304 | 10 | 295 | 0.0 | 3.2 | 0.00 | 0.00 | 0.00 | 90 | 1027.1 |
| 20260509170805 | 10 | 295 | 0.0 | 3.2 | 0.00 | 0.00 | 0.00 | 90 | 1027.1 |
| 20260509170554 | 10 | 295 | 0.0 | 0.0 | 0.00 | 0.00 | 0.00 | 89 | 1027.2 |
| 20260509170431 | 10 | 295 | 0.0 | 3.2 | 0.00 | 0.00 | 0.00 | 90 | 1027.2 |
| 20260509165311 | 10 | 295 | 0.0 | 0.0 | 0.00 | 0.00 | 0.00 | 89 | 1027.2 |
| 20260509164810 | 10 | 295 | 0.0 | 0.0 | 0.00 | 0.00 | 0.00 | 89 | 1027.2 |
| 20260509164645 | 10 | 295 | 0.0 | 0.0 | 0.00 | 0.00 | 0.00 | 89 | 1027.1 |
| 20260509163822 | 10 | 295 | 0.0 | 0.0 | 0.00 | 0.00 | 0.00 | 89 | 1027.1 |
| 20260509163310 | 10 | 295 | 0.0 | 1.6 | 0.00 | 0.00 | 0.00 | 89 | 1027.2 |
| 20260509162805 | 10 | 295 | 0.0 | 1.6 | 0.00 | 0.00 | 0.00 | 89 | 1027.2 |
| 20260509162523 | 10 | 295 | 0.0 | 1.6 | 0.00 | 0.00 | 0.00 | 89 | 1027.1 |
| 20260509162518 | 10 | 295 | 0.0 | 1.6 | 0.00 | 0.00 | 0.00 | 89 | 1027.2 |
| 20260509162412 | 10 | 295 | 0.0 | 1.6 | 0.00 | 0.00 | 0.00 | 89 | 1027.2 |
| 20260509160804 | 10 | 295 | 0.0 | 3.2 | 0.00 | 0.00 | 0.00 | 89 | 1027.2 |
| 20260509160304 | 10 | 295 | 0.0 | 3.2 | 0.00 | 0.00 | 0.00 | 89 | 1027.3 |
| 20260509155807 | 10 | 295 | 1.6 | 3.2 | 0.00 | 0.00 | 0.00 | 89 | 1027.3 |
| 20260509155309 | 10 | 295 | 1.6 | 3.2 | 0.00 | 0.00 | 0.00 | 89 | 1027.2 |
| 20260509154809 | 10 | 295 | 0.0 | 3.2 | 0.00 | 0.00 | 0.00 | 89 | 1027.2 |
| 20260509154644 | 10 | 295 | 1.6 | 3.2 | 0.00 | 0.00 | 0.00 | 89 | 1027.1 |
| 20260509153807 | 10 | 287 | 0.0 | 3.2 | 0.00 | 0.00 | 0.00 | 88 | 1027.2 |
| 20260509153306 | 10 | 283 | 0.0 | 3.2 | 0.00 | 0.00 | 0.00 | 88 | 1027.2 |
| 20260509152809 | 10 | 283 | 0.0 | 3.2 | 0.00 | 0.00 | 0.00 | 88 | 1027.3 |
| 20260509152307 | 10 | 282 | 1.6 | 3.2 | 0.00 | 0.00 | 0.00 | 88 | 1027.4 |
| 20260509151809 | 10 | 284 | 1.6 | 3.2 | 0.00 | 0.00 | 0.00 | 88 | 1027.4 |
| 20260509151308 | 10 | 240 | 0.0 | 1.6 | 0.00 | 0.00 | 0.00 | 88 | 1027.4 |
| 20260509150812 | 10 | 240 | 0.0 | 0.0 | 0.00 | 0.00 | 0.00 | 88 | 1027.2 |
| 20260509150307 | 10 | 240 | 0.0 | 0.0 | 0.00 | 0.00 | 0.00 | 88 | 1027.3 |
| 20260509145811 | 10 | 240 | 0.0 | 0.0 | 0.00 | 0.00 | 0.00 | 88 | 1027.4 |
| 20260509145308 | 10 | 240 | 0.0 | 0.0 | 0.00 | 0.00 | 0.00 | 88 | 1027.3 |
| 20260509144655 | 11 | 240 | 0.0 | 0.0 | 0.00 | 0.00 | 0.00 | 87 | 1027.3 |
| 20260509143812 | 11 | 240 | 0.0 | 0.0 | 0.00 | 0.00 | 0.00 | 87 | 1027.1 |
| 20260509143316 | 11 | 240 | 0.0 | 0.0 | 0.00 | 0.00 | 0.00 | 87 | 1027.3 |
| 20260509142812 | 11 | 240 | 0.0 | 0.0 | 0.00 | 0.00 | 0.00 | 87 | 1027.2 |
| 20260509142306 | 11 | 240 | 0.0 | 1.6 | 0.00 | 0.00 | 0.00 | 87 | 1027.2 |
| 20260509141807 | 11 | 240 | 0.0 | 1.6 | 0.00 | 0.00 | 0.00 | 87 | 1027.2 |
| 20260509141302 | 11 | 240 | 0.0 | 0.0 | 0.00 | 0.00 | 0.00 | 87 | 1027.2 |
| 20260509141147 | 11 | 240 | 0.0 | 0.0 | 0.00 | 0.00 | 0.00 | 87 | 1027.1 |
| 20260509140307 | 11 | 240 | 0.0 | 0.0 | 0.00 | 0.00 | 0.00 | 86 | 1027.2 |
| 20260509135811 | 11 | 240 | 0.0 | 0.0 | 0.00 | 0.00 | 0.00 | 86 | 1027.2 |
| 20260509135306 | 11 | 240 | 0.0 | 0.0 | 0.00 | 0.00 | 0.00 | 86 | 1027.1 |
| 20260509135251 | 11 | 240 | 0.0 | 0.0 | 0.00 | 0.00 | 0.00 | 86 | 1027.2 |
| 20260509134309 | 11 | 240 | 0.0 | 0.0 | 0.00 | 0.00 | 0.00 | 86 | 1027.2 |
| 20260509133827 | 11 | 240 | 0.0 | 1.6 | 0.00 | 0.00 | 0.00 | 86 | 1027.2 |
| 20260509133444 | 11 | 240 | 0.0 | 0.0 | 0.00 | 0.00 | 0.00 | 86 | 1027.2 |
| 20260509133352 | 11 | 240 | 0.0 | 1.6 | 0.00 | 0.00 | 0.00 | 86 | 1027.3 |
| 20260509131812 | 11 | 240 | 0.0 | 1.6 | 0.00 | 0.00 | 0.00 | 86 | 1027.2 |
| 20260509131306 | 11 | 240 | 0.0 | 1.6 | 0.00 | 0.00 | 0.00 | 86 | 1027.2 |
| 20260509130808 | 11 | 240 | 0.0 | 0.0 | 0.00 | 0.00 | 0.00 | 85 | 1027.3 |
| 20260509130310 | 11 | 240 | 0.0 | 0.0 | 0.00 | 0.00 | 0.00 | 85 | 1027.3 |
| 20260509130154 | 11 | 240 | 0.0 | 0.0 | 0.00 | 0.00 | 0.00 | 85 | 1027.2 |
| 20260509125646 | 11 | 240 | 0.0 | 0.0 | 0.00 | 0.00 | 0.00 | 85 | 1027.2 |
| 20260509124809 | 11 | 240 | 0.0 | 0.0 | 0.00 | 0.00 | 0.00 | 85 | 1027.1 |
| 20260509124306 | 11 | 240 | 0.0 | 1.6 | 0.00 | 0.00 | 0.00 | 85 | 1027.2 |
| 20260509123808 | 12 | 240 | 0.0 | 1.6 | 0.00 | 0.00 | 0.00 | 85 | 1027.2 |
| 20260509123306 | 12 | 269 | 0.0 | 0.0 | 0.00 | 0.00 | 0.00 | 85 | 1027.2 |
| 20260509122808 | 12 | 269 | 0.0 | 0.0 | 0.00 | 0.00 | 0.00 | 85 | 1027.2 |
| 20260509122306 | 12 | 269 | 0.0 | 1.6 | 0.00 | 0.00 | 0.00 | 85 | 1027.3 |
| 20260509121807 | 12 | 269 | 0.0 | 1.6 | 0.00 | 0.00 | 0.00 | 85 | 1027.3 |
| 20260509121304 | 12 | 269 | 0.0 | 1.6 | 0.00 | 0.00 | 0.00 | 85 | 1027.3 |
| 20260509120805 | 12 | 116 | 0.0 | 0.0 | 0.00 | 0.00 | 0.00 | 84 | 1027.3 |
| 20260509120304 | 12 | 116 | 0.0 | 0.0 | 0.00 | 0.00 | 0.00 | 84 | 1027.4 |
| 20260509115805 | 12 | 116 | 0.0 | 0.0 | 0.00 | 0.00 | 0.00 | 84 | 1027.2 |
| 20260509115307 | 12 | 116 | 0.0 | 0.0 | 0.00 | 0.00 | 0.00 | 84 | 1027.3 |
| 20260509114812 | 12 | 116 | 0.0 | 0.0 | 0.00 | 0.00 | 0.00 | 83 | 1027.4 |
| 20260509114658 | 12 | 116 | 0.0 | 0.0 | 0.00 | 0.00 | 0.00 | 83 | 1027.3 |
| 20260509113746 | 12 | 116 | 0.0 | 0.0 | 0.00 | 0.00 | 0.00 | 83 | 1027.3 |
| 20260509113244 | 12 | 116 | 0.0 | 0.0 | 0.00 | 0.00 | 0.00 | 83 | 1027.2 |
| 20260509112740 | 12 | 116 | 0.0 | 0.0 | 0.00 | 0.00 | 0.00 | 83 | 1027.2 |
| 20260509112618 | 12 | 116 | 0.0 | 0.0 | 0.00 | 0.00 | 0.00 | 83 | 1027.3 |
| 20260509111734 | 12 | 116 | 0.0 | 0.0 | 0.00 | 0.00 | 0.00 | 82 | 1027.2 |
| 20260509111238 | 12 | 116 | 0.0 | 0.0 | 0.00 | 0.00 | 0.00 | 82 | 1027.2 |
| 20260509110735 | 12 | 116 | 0.0 | 0.0 | 0.00 | 0.00 | 0.00 | 82 | 1027.3 |
| 20260509105231 | 13 | 116 | 0.0 | 0.0 | 0.00 | 0.00 | 0.00 | 81 | 1027.1 |
| 20260509105128 | 13 | 116 | 0.0 | 0.0 | 0.00 | 0.00 | 0.00 | 80 | 1027.2 |
| 20260509103733 | 13 | 116 | 0.0 | 0.0 | 0.00 | 0.00 | 0.00 | 79 | 1027.1 |
| 20260509103234 | 13 | 116 | 0.0 | 0.0 | 0.00 | 0.00 | 0.00 | 79 | 1027.2 |
| 20260509102732 | 13 | 116 | 0.0 | 0.0 | 0.00 | 0.00 | 0.00 | 79 | 1027.2 |
| 20260509102232 | 13 | 116 | 0.0 | 0.0 | 0.00 | 0.00 | 0.00 | 78 | 1027.0 |
| 20260509101735 | 13 | 116 | 0.0 | 0.0 | 0.00 | 0.00 | 0.00 | 78 | 1027.0 |
| 20260509101234 | 13 | 116 | 0.0 | 1.6 | 0.00 | 0.00 | 0.00 | 77 | 1027.1 |
| 20260509100734 | 13 | 116 | 0.0 | 1.6 | 0.00 | 0.00 | 0.00 | 77 | 1027.0 |
| 20260509100635 | 13 | 116 | 0.0 | 1.6 | 0.00 | 0.00 | 0.00 | 77 | 1026.8 |
| 20260509095733 | 13 | 116 | 0.0 | 1.6 | 0.00 | 0.00 | 0.00 | 76 | 1026.9 |
| 20260509095238 | 14 | 116 | 0.0 | 1.6 | 0.00 | 0.00 | 0.00 | 76 | 1026.9 |
| 20260509094746 | 14 | 116 | 0.0 | 0.0 | 0.00 | 0.00 | 0.00 | 75 | 1026.8 |
| 20260509094233 | 14 | 116 | 0.0 | 0.0 | 0.00 | 0.00 | 0.00 | 75 | 1026.8 |
| 20260509093731 | 14 | 116 | 0.0 | 0.0 | 0.00 | 0.00 | 0.00 | 75 | 1026.8 |
| 20260509093231 | 14 | 116 | 0.0 | 1.6 | 0.00 | 0.00 | 0.00 | 74 | 1026.6 |
| 20260509092232 | 15 | 116 | 0.0 | 0.0 | 0.00 | 0.00 | 0.00 | 73 | 1026.6 |
| 20260509090219 | 15 | 116 | 0.0 | 0.0 | 0.00 | 0.00 | 0.00 | 72 | 1026.4 |
| 20260509085705 | 15 | 116 | 0.0 | 0.0 | 0.00 | 0.00 | 0.00 | 71 | 1026.3 |
| 20260509085208 | 15 | 116 | 0.0 | 0.0 | 0.00 | 0.00 | 0.00 | 70 | 1026.3 |
| 20260509084724 | 15 | 116 | 0.0 | 0.0 | 0.00 | 0.00 | 0.00 | 70 | 1026.2 |
| 20260509084205 | 15 | 116 | 0.0 | 0.0 | 0.00 | 0.00 | 0.00 | 69 | 1026.2 |
| 20260509083706 | 15 | 116 | 0.0 | 0.0 | 0.00 | 0.00 | 0.00 | 68 | 1026.3 |
| 20260509083205 | 16 | 116 | 0.0 | 0.0 | 0.00 | 0.00 | 0.00 | 67 | 1026.1 |
| 20260509082705 | 16 | 116 | 0.0 | 0.0 | 0.00 | 0.00 | 0.00 | 67 | 1026.0 |
| 20260509082211 | 16 | 116 | 0.0 | 0.0 | 0.00 | 0.00 | 0.00 | 67 | 1026.0 |
| 20260509081709 | 16 | 116 | 0.0 | 0.0 | 0.00 | 0.00 | 0.00 | 67 | 1026.0 |
| 20260509081349 | 16 | 116 | 0.0 | 0.0 | 0.00 | 0.00 | 0.00 | 66 | 1025.8 |
| 20260509081256 | 16 | 116 | 0.0 | 0.0 | 0.00 | 0.00 | 0.00 | 67 | 1025.8 |
| 20260509080220 | 16 | 116 | 0.0 | 0.0 | 0.00 | 0.00 | 0.00 | 66 | 1025.8 |
| 20260509075707 | 17 | 116 | 0.0 | 0.0 | 0.00 | 0.00 | 0.00 | 66 | 1025.8 |
| 20260509075206 | 17 | 116 | 0.0 | 1.6 | 0.00 | 0.00 | 0.00 | 66 | 1025.7 |
| 20260509074705 | 17 | 116 | 0.0 | 1.6 | 0.00 | 0.00 | 0.00 | 66 | 1025.6 |
| 20260509074208 | 17 | 116 | 0.0 | 3.2 | 0.00 | 0.00 | 0.00 | 66 | 1025.5 |
| 20260509073706 | 17 | 119 | 0.0 | 3.2 | 0.00 | 0.00 | 0.00 | 65 | 1025.4 |
| 20260509073207 | 17 | 124 | 0.0 | 6.4 | 0.00 | 0.00 | 0.00 | 65 | 1025.4 |
| 20260509072711 | 17 | 101 | 0.0 | 6.4 | 0.00 | 0.00 | 0.00 | 64 | 1025.5 |
| 20260509072549 | 18 | 116 | 0.0 | 6.4 | 0.00 | 0.00 | 0.00 | 63 | 1025.3 |
| 20260509071710 | 18 | 110 | 0.0 | 6.4 | 0.00 | 0.00 | 0.00 | 63 | 1025.4 |
| 20260509071215 | 18 | 115 | 1.6 | 6.4 | 0.00 | 0.00 | 0.00 | 62 | 1025.3 |
| 20260509070711 | 18 | 113 | 1.6 | 6.4 | 0.00 | 0.00 | 0.00 | 62 | 1025.3 |
| 20260509070206 | 18 | 98 | 1.6 | 6.4 | 0.00 | 0.00 | 0.00 | 61 | 1025.2 |
| 20260509065700 | 18 | 111 | 0.0 | 6.4 | 0.00 | 0.00 | 0.00 | 61 | 1025.0 |
| 20260509065159 | 18 | 110 | 3.2 | 9.7 | 0.00 | 0.00 | 0.00 | 61 | 1024.9 |
| 20260509064657 | 18 | 119 | 0.0 | 9.7 | 0.00 | 0.00 | 0.00 | 61 | 1024.8 |
| 20260509064153 | 18 | 113 | 1.6 | 6.4 | 0.00 | 0.00 | 0.00 | 61 | 1024.8 |
| 20260509063655 | 19 | 122 | 1.6 | 4.8 | 0.00 | 0.00 | 0.00 | 60 | 1024.7 |
| 20260509063149 | 19 | 128 | 0.0 | 12.9 | 0.00 | 0.00 | 0.00 | 59 | 1024.6 |
| 20260509062647 | 19 | 121 | 1.6 | 12.9 | 0.00 | 0.00 | 0.00 | 59 | 1024.6 |
| 20260509062147 | 19 | 103 | 0.0 | 11.3 | 0.00 | 0.00 | 0.00 | 59 | 1024.6 |
| 20260509061645 | 20 | 150 | 3.2 | 11.3 | 0.00 | 0.00 | 0.00 | 59 | 1024.5 |
| 20260509061141 | 20 | 117 | 1.6 | 12.9 | 0.00 | 0.00 | 0.00 | 59 | 1024.5 |
| 20260509061047 | 20 | 169 | 3.2 | 12.9 | 0.00 | 0.00 | 0.00 | 58 | 1024.5 |
| 20260509060326 | 20 | 110 | 1.6 | 16.1 | 0.00 | 0.00 | 0.00 | 55 | 1024.3 |
| 20260509060319 | 20 | 169 | 1.6 | 11.3 | 0.00 | 0.00 | 0.00 | 55 | 1024.4 |
| 20260509060220 | 20 | 109 | 4.8 | 12.9 | 0.00 | 0.00 | 0.00 | 57 | 1024.4 |
| 20260509054637 | 20 | 169 | 1.6 | 16.1 | 0.00 | 0.00 | 0.00 | 55 | 1024.4 |
| 20260509054143 | 20 | 192 | 1.6 | 11.3 | 0.00 | 0.00 | 0.00 | 55 | 1024.3 |
| 20260509053637 | 20 | 126 | 4.8 | 12.9 | 0.00 | 0.00 | 0.00 | 55 | 1024.3 |
| 20260509053141 | 20 | 187 | 4.8 | 12.9 | 0.00 | 0.00 | 0.00 | 54 | 1024.3 |
| 20260509052133 | 20 | 103 | 3.2 | 14.5 | 0.00 | 0.00 | 0.00 | 54 | 1024.2 |
| 20260509051635 | 20 | 123 | 8.0 | 14.5 | 0.00 | 0.00 | 0.00 | 54 | 1024.1 |
| 20260509051559 | 20 | 92 | 4.8 | 14.5 | 0.00 | 0.00 | 0.00 | 53 | 1024.1 |
| 20260509050636 | 21 | 106 | 6.4 | 14.5 | 0.00 | 0.00 | 0.00 | 52 | 1024.1 |
| 20260509050135 | 21 | 169 | 3.2 | 11.3 | 0.00 | 0.00 | 0.00 | 52 | 1024.1 |
| 20260509045636 | 21 | 106 | 4.8 | 11.3 | 0.00 | 0.00 | 0.00 | 52 | 1024.1 |
| 20260509045133 | 21 | 125 | 3.2 | 12.9 | 0.00 | 0.00 | 0.00 | 52 | 1024.1 |
| 20260509045015 | 21 | 110 | 4.8 | 12.9 | 0.00 | 0.00 | 0.00 | 52 | 1024.1 |
| 20260509044555 | 21 | 131 | 4.8 | 11.3 | 0.00 | 0.00 | 0.00 | 51 | 1024.0 |
| 20260509043620 | 21 | 213 | 4.8 | 11.3 | 0.00 | 0.00 | 0.00 | 51 | 1024.0 |
| 20260509043118 | 21 | 175 | 6.4 | 11.3 | 0.00 | 0.00 | 0.00 | 50 | 1024.0 |
| 20260509042616 | 21 | 166 | 3.2 | 12.9 | 0.00 | 0.00 | 0.00 | 50 | 1024.0 |
| 20260509042108 | 21 | 101 | 3.2 | 11.3 | 0.00 | 0.00 | 0.00 | 50 | 1024.0 |
| 20260509041608 | 21 | 167 | 0.0 | 11.3 | 0.00 | 0.00 | 0.00 | 49 | 1024.0 |
| 20260509041102 | 21 | 119 | 3.2 | 14.5 | 0.00 | 0.00 | 0.00 | 50 | 1024.1 |
| 20260509040602 | 21 | 103 | 6.4 | 14.5 | 0.00 | 0.00 | 0.00 | 49 | 1024.1 |
| 20260509040104 | 21 | 50 | 4.8 | 12.9 | 0.00 | 0.00 | 0.00 | 50 | 1024.0 |
| 20260509035601 | 21 | 68 | 6.4 | 12.9 | 0.00 | 0.00 | 0.00 | 50 | 1024.0 |
| 20260509035056 | 21 | 108 | 8.0 | 12.9 | 0.00 | 0.00 | 0.00 | 50 | 1024.0 |
| 20260509034556 | 21 | 184 | 0.0 | 11.3 | 0.00 | 0.00 | 0.00 | 50 | 1023.9 |
| 20260509034521 | 21 | 164 | 3.2 | 14.5 | 0.00 | 0.00 | 0.00 | 51 | 1024.1 |
| 20260509033556 | 21 | 84 | 9.7 | 16.1 | 0.00 | 0.00 | 0.00 | 49 | 1024.1 |
| 20260509033050 | 21 | 117 | 4.8 | 16.1 | 0.00 | 0.00 | 0.00 | 50 | 1024.1 |
| 20260509032937 | 21 | 94 | 4.8 | 11.3 | 0.00 | 0.00 | 0.00 | 49 | 1024.2 |
| 20260509032050 | 21 | 202 | 3.2 | 11.3 | 0.00 | 0.00 | 0.00 | 49 | 1024.2 |
| 20260509031541 | 22 | 200 | 3.2 | 9.7 | 0.00 | 0.00 | 0.00 | 45 | 1024.2 |
| 20260509031108 | 21 | 242 | 0.0 | 8.0 | 0.00 | 0.00 | 0.00 | 47 | 1024.2 |
| 20260509030552 | 21 | 210 | 3.2 | 9.7 | 0.00 | 0.00 | 0.00 | 47 | 1024.2 |
| 20260509024927 | 21 | 219 | 0.0 | 11.3 | 0.00 | 0.00 | 0.00 | 47 | 1024.6 |
| 20260509024052 | 21 | 62 | 1.6 | 8.0 | 0.00 | 0.00 | 0.00 | 48 | 1024.6 |
| 20260509023536 | 21 | 125 | 1.6 | 14.5 | 0.00 | 0.00 | 0.00 | 48 | 1024.6 |
| 20260509023033 | 21 | 172 | 6.4 | 14.5 | 0.00 | 0.00 | 0.00 | 48 | 1024.8 |
| 20260509022534 | 21 | 213 | 0.0 | 8.0 | 0.00 | 0.00 | 0.00 | 49 | 1024.9 |
| 20260509022421 | 21 | 196 | 3.2 | 9.7 | 0.00 | 0.00 | 0.00 | 49 | 1024.9 |
| 20260509021533 | 20 | 275 | 0.0 | 9.7 | 0.00 | 0.00 | 0.00 | 52 | 1025.0 |
| 20260509021039 | 20 | 196 | 3.2 | 9.7 | 0.00 | 0.00 | 0.00 | 50 | 1025.1 |
| 20260509020538 | 20 | 263 | 1.6 | 9.7 | 0.00 | 0.00 | 0.00 | 51 | 1025.2 |
| 20260509020036 | 20 | 254 | 3.2 | 9.7 | 0.00 | 0.00 | 0.00 | 51 | 1025.2 |
| 20260509015928 | 20 | 213 | 3.2 | 14.5 | 0.00 | 0.00 | 0.00 | 52 | 1025.2 |
| 20260509015035 | 20 | 190 | 9.7 | 14.5 | 0.00 | 0.00 | 0.00 | 50 | 1025.4 |
| 20260509014538 | 20 | 155 | 6.4 | 12.9 | 0.00 | 0.00 | 0.00 | 52 | 1025.4 |
| 20260509014037 | 20 | 125 | 3.2 | 12.9 | 0.00 | 0.00 | 0.00 | 52 | 1025.4 |
| 20260509013926 | 20 | 196 | 3.2 | 12.9 | 0.00 | 0.00 | 0.00 | 53 | 1025.6 |
| 20260509013032 | 20 | 204 | 3.2 | 9.7 | 0.00 | 0.00 | 0.00 | 53 | 1025.6 |
| 20260509012533 | 20 | 178 | 3.2 | 9.7 | 0.00 | 0.00 | 0.00 | 53 | 1025.6 |
| 20260509012045 | 19 | 175 | 4.8 | 11.3 | 0.00 | 0.00 | 0.00 | 55 | 1025.6 |
| 20260509011543 | 19 | 202 | 6.4 | 11.3 | 0.00 | 0.00 | 0.00 | 52 | 1025.7 |
| 20260509011027 | 19 | 187 | 3.2 | 9.7 | 0.00 | 0.00 | 0.00 | 54 | 1025.5 |
| 20260509010524 | 19 | 227 | 1.6 | 8.0 | 0.00 | 0.00 | 0.00 | 55 | 1025.5 |
| 20260509010025 | 19 | 248 | 4.8 | 9.7 | 0.00 | 0.00 | 0.00 | 55 | 1025.4 |
| 20260509005520 | 18 | 219 | 1.6 | 9.7 | 0.00 | 0.00 | 0.00 | 56 | 1025.8 |
| 20260509005017 | 18 | 262 | 3.2 | 9.7 | 0.00 | 0.00 | 0.00 | 57 | 1025.9 |
| 20260509004511 | 18 | 224 | 4.8 | 9.7 | 0.00 | 0.00 | 0.00 | 58 | 1025.9 |
| 20260509004010 | 18 | 170 | 4.8 | 8.0 | 0.00 | 0.00 | 0.00 | 59 | 1025.8 |
| 20260509003510 | 18 | 174 | 4.8 | 9.7 | 0.00 | 0.00 | 0.00 | 57 | 1025.9 |
| 20260509003352 | 18 | 278 | 3.2 | 9.7 | 0.00 | 0.00 | 0.00 | 58 | 1025.9 |
| 20260509002509 | 18 | 234 | 1.6 | 11.3 | 0.00 | 0.00 | 0.00 | 60 | 1025.9 |
| 20260509002257 | 17 | 192 | 3.2 | 11.3 | 0.00 | 0.00 | 0.00 | 60 | 1025.8 |
| 20260509002141 | 18 | 236 | 6.4 | 11.3 | 0.00 | 0.00 | 0.00 | 60 | 1025.8 |
| 20260509001009 | 17 | 227 | 6.4 | 11.3 | 0.00 | 0.00 | 0.00 | 60 | 1025.8 |
| 20260509000956 | 17 | 223 | 3.2 | 4.8 | 0.00 | 0.00 | 0.00 | 61 | 1025.8 |